GW1321 Weather Reports


Display with metric or nautical units.
time (UTC)temp
F
wind
direction
speed
MPH
gust
MPH
rain 1hr
in
rain 24hr
in
rain mn
in
humidity
%
barometer
mb
20260506044544 45 360 1.0 3.0 0.00 0.63 0.63 95 1012.0
20260506044029 45 0 0.0 3.0 0.00 0.63 0.63 96 1011.9
20260506043533 45 360 1.0 3.0 0.00 0.63 0.63 95 1011.9
20260506043045 45 360 1.0 3.0 0.00 0.63 0.63 95 1011.8
20260506042530 45 360 1.0 3.0 0.00 0.63 0.63 95 1012.0
20260506042030 45 360 1.0 6.0 0.00 0.63 0.63 95 1011.9
20260506041546 45 360 1.0 6.0 0.00 0.63 0.63 95 1011.7
20260506041029 45 360 2.0 5.0 0.00 0.63 0.63 95 1011.5
20260506040533 45 360 1.0 5.0 0.00 0.63 0.63 95 1011.7
20260506040042 45 360 3.0 5.0 0.00 0.63 0.63 95 1011.4
20260506035530 45 360 1.0 5.0 0.00 0.63 0.63 95 1011.5
20260506035030 45 360 1.0 6.0 0.00 0.63 0.63 95 1011.4
20260506034541 45 360 3.0 6.0 0.00 0.63 0.63 95 1011.2
20260506034030 45 360 2.0 4.0 0.00 0.63 0.63 95 1011.2
20260506033529 45 360 2.0 4.0 0.00 0.63 0.63 95 1011.2
20260506033036 45 360 2.0 6.0 0.00 0.63 0.63 95 1011.0
20260506032530 45 360 1.0 6.0 0.00 0.63 0.63 95 1011.0
20260506032030 45 360 2.0 4.0 0.00 0.63 0.63 96 1010.9
20260506031543 45 360 1.0 4.0 0.00 0.63 0.63 95 1010.9
20260506031029 45 360 1.0 4.0 0.00 0.63 0.63 95 1010.8
20260506030529 45 360 0.0 4.0 0.00 0.63 0.63 95 1010.8
20260506030043 45 360 1.0 3.0 0.00 0.63 0.63 96 1010.4
20260506025529 45 360 0.0 3.0 0.00 0.63 0.63 95 1010.8
20260506025028 45 360 2.0 3.0 0.00 0.63 0.63 95 1010.2
20260506024541 45 360 1.0 3.0 0.00 0.63 0.63 95 1010.3
20260506024029 45 360 2.0 3.0 0.00 0.63 0.63 95 1010.0
20260506023531 45 360 1.0 8.0 0.00 0.63 0.63 95 1010.0
20260506023058 45 0 1.0 8.0 0.00 0.63 0.63 95 1010.1
20260506022530 45 360 2.0 6.0 0.00 0.63 0.63 95 1010.0
20260506022028 45 360 2.0 5.0 0.00 0.63 0.63 95 1010.0
20260506021604 45 360 1.0 5.0 0.00 0.63 0.63 95 1010.2
20260506021030 45 360 2.0 8.0 0.00 0.63 0.63 95 1010.2
20260506020529 45 360 1.0 8.0 0.00 0.63 0.63 95 1010.1
20260506020039 45 360 3.0 8.0 0.00 0.63 0.63 95 1010.1
20260506015529 45 360 3.0 5.0 0.00 0.63 0.63 95 1010.2
20260506015031 45 360 1.0 6.0 0.00 0.63 0.63 95 1010.3
20260506014541 45 360 2.0 6.0 0.00 0.63 0.63 95 1010.3
20260506014029 46 360 3.0 6.0 0.00 0.63 0.63 95 1009.7
20260506013528 46 360 2.0 6.0 0.00 0.63 0.63 95 1009.5
20260506013044 46 360 3.0 6.0 0.00 0.63 0.63 95 1009.2
20260506012529 46 360 2.0 4.0 0.00 0.63 0.63 95 1009.0
20260506012029 46 360 1.0 3.0 0.00 0.63 0.63 95 1009.3
20260506011555 46 360 1.0 4.0 0.00 0.63 0.63 95 1009.2
20260506011030 46 360 2.0 4.0 0.00 0.63 0.63 95 1009.4
20260506010529 46 360 2.0 4.0 0.00 0.63 0.63 95 1009.3
20260506010046 46 360 1.0 4.0 0.00 0.63 0.63 95 1009.2
20260506005528 46 360 2.0 4.0 0.00 0.63 0.63 95 1009.2
20260506005032 46 360 1.0 4.0 0.00 0.63 0.63 95 1009.1
20260506004539 46 360 1.0 4.0 0.00 0.63 0.63 95 1009.0
20260506004028 46 360 1.0 4.0 0.00 0.63 0.63 95 1009.0
20260506003528 46 360 2.0 9.0 0.00 0.63 0.63 95 1008.9
20260506003041 46 360 3.0 9.0 0.00 0.63 0.63 95 1008.6
20260506002528 47 360 2.0 9.0 0.00 0.63 0.63 95 1008.8
20260506002031 47 360 2.0 4.0 0.00 0.63 0.63 95 1008.6
20260506001537 47 360 2.0 5.0 0.00 0.63 0.63 95 1008.8
20260506001028 47 360 1.0 5.0 0.00 0.63 0.63 95 1008.7
20260506000532 47 360 2.0 5.0 0.00 0.63 0.63 95 1008.6
20260506000049 47 360 2.0 6.0 0.00 0.63 0.63 95 1008.3
20260505235530 47 360 2.0 6.0 0.00 0.63 0.63 95 1008.4
20260505235030 47 360 3.0 5.0 0.00 0.63 0.63 95 1008.4
20260505234543 47 360 2.0 6.0 0.00 0.63 0.63 95 1008.4
20260505234027 47 360 3.0 6.0 0.00 0.63 0.63 95 1008.2
20260505233528 47 360 2.0 6.0 0.00 0.63 0.63 95 1008.1
20260505233040 47 360 2.0 6.0 0.00 0.63 0.63 95 1008.1
20260505232532 48 360 3.0 6.0 0.00 0.63 0.63 95 1008.1
20260505232030 48 360 3.0 6.0 0.00 0.63 0.63 95 1007.8
20260505231549 48 360 2.0 4.0 0.00 0.63 0.63 95 1007.9
20260505231030 49 360 2.0 4.0 0.00 0.63 0.63 95 1007.7
20260505230530 49 360 1.0 5.0 0.00 0.63 0.63 95 1007.7
20260505230044 49 360 2.0 8.0 0.00 0.63 0.63 95 1007.4
20260505225531 49 360 2.0 8.0 0.00 0.63 0.63 95 1007.7
20260505225030 49 360 4.0 8.0 0.00 0.63 0.63 95 1007.9
20260505224543 50 360 1.0 5.0 0.00 0.63 0.63 95 1007.7
20260505224027 50 360 1.0 6.0 0.00 0.63 0.63 95 1007.6
20260505223528 50 360 3.0 6.0 0.00 0.63 0.63 95 1007.4
20260505223041 50 360 2.0 5.0 0.00 0.63 0.63 95 1007.3
20260505222527 50 360 2.0 5.0 0.00 0.63 0.63 95 1007.2
20260505222030 50 360 2.0 5.0 0.00 0.63 0.63 95 1007.2
20260505221542 50 360 2.0 5.0 0.00 0.63 0.63 95 1007.2
20260505221030 50 360 1.0 4.0 0.00 0.63 0.63 95 1007.0
20260505220528 50 360 2.0 4.0 0.00 0.63 0.63 95 1007.1
20260505220051 50 360 1.0 4.0 0.00 0.63 0.63 95 1007.6
20260505215531 50 360 2.0 4.0 0.00 0.63 0.63 95 1007.6
20260505215031 51 360 2.0 4.0 0.00 0.63 0.63 95 1007.4
20260505214554 51 360 1.0 4.0 0.00 0.63 0.63 95 1007.3
20260505214030 51 360 1.0 3.0 0.00 0.63 0.63 95 1007.2
20260505213530 51 360 1.0 8.0 0.00 0.63 0.63 95 1007.1
20260505213044 51 360 1.0 8.0 0.00 0.63 0.63 95 1007.0
20260505212528 51 360 3.0 5.0 0.00 0.63 0.63 95 1007.0
20260505212030 52 360 1.0 4.0 0.00 0.63 0.63 95 1006.9
20260505211545 52 360 2.0 6.0 0.00 0.63 0.63 95 1006.8
20260505211030 52 360 3.0 6.0 0.00 0.63 0.63 95 1006.9
20260505210532 52 360 2.0 5.0 0.00 0.63 0.63 95 1007.0
20260505210038 52 360 2.0 6.0 0.00 0.63 0.63 95 1007.0
20260505205531 52 360 3.0 6.0 0.00 0.63 0.63 95 1006.9
20260505205029 53 360 2.0 5.0 0.00 0.63 0.63 95 1007.0
20260505204543 53 360 1.0 3.0 0.00 0.63 0.63 95 1007.0
20260505204029 53 360 1.0 4.0 0.00 0.63 0.63 95 1007.0
20260505203529 53 360 0.0 6.0 0.00 0.63 0.63 95 1007.0
20260505203101 53 360 3.0 6.0 0.01 0.63 0.63 95 1006.8
20260505202529 53 360 2.0 5.0 0.01 0.63 0.63 95 1006.9
20260505202030 53 360 2.0 4.0 0.01 0.63 0.63 95 1006.8
20260505201547 53 360 2.0 4.0 0.01 0.63 0.63 95 1007.2
20260505201029 53 360 1.0 4.0 0.01 0.63 0.63 95 1007.5
20260505200532 53 360 1.0 5.0 0.01 0.63 0.63 95 1007.5
20260505200047 53 360 0.0 5.0 0.01 0.63 0.63 95 1007.3
20260505195530 53 360 2.0 10.0 0.01 0.63 0.63 95 1006.5
20260505195030 53 360 3.0 10.0 0.01 0.63 0.63 95 1006.2
20260505194543 54 360 3.0 6.0 0.01 0.63 0.63 95 1006.1
20260505194031 54 360 2.0 5.0 0.01 0.63 0.63 95 1006.7
20260505193530 54 360 2.0 4.0 0.01 0.63 0.63 95 1006.7
20260505193038 54 360 1.0 4.0 0.00 0.62 0.62 95 1006.8
20260505192530 54 360 2.0 4.0 0.01 0.62 0.62 95 1006.7
20260505192030 54 360 2.0 4.0 0.01 0.62 0.62 94 1006.9
20260505191541 55 360 1.0 4.0 0.01 0.62 0.62 94 1007.1
20260505191030 55 360 1.0 4.0 0.01 0.62 0.62 95 1006.9
20260505190530 55 360 1.0 6.0 0.01 0.62 0.62 95 1006.7
20260505190046 55 360 2.0 6.0 0.01 0.62 0.62 95 1006.7
20260505185530 56 360 2.0 5.0 0.01 0.62 0.62 94 1006.5
20260505185031 56 360 1.0 3.0 0.01 0.62 0.62 95 1006.6
20260505184543 56 360 1.0 3.0 0.01 0.62 0.62 94 1006.6
20260505184034 57 360 0.0 3.0 0.01 0.62 0.62 94 1006.7
20260505183530 57 360 1.0 3.0 0.01 0.62 0.62 94 1006.5
20260505183043 57 360 0.0 4.0 0.01 0.62 0.62 94 1006.3
20260505182529 58 360 1.0 4.0 0.00 0.61 0.61 95 1006.1
20260505182030 58 360 1.0 9.0 0.00 0.61 0.61 94 1006.0
20260505181544 58 360 2.0 9.0 0.00 0.61 0.61 94 1006.1
20260505181031 59 360 3.0 6.0 0.00 0.61 0.61 94 1006.3
20260505180531 60 360 1.0 4.0 0.00 0.61 0.61 94 1006.2
20260505180040 60 360 2.0 4.0 0.00 0.61 0.61 95 1006.2
20260505175531 61 360 0.0 2.0 0.00 0.61 0.61 95 1006.1
20260505175030 61 0 0.0 2.0 0.00 0.61 0.61 95 1006.3
20260505174545 61 0 0.0 4.0 0.00 0.61 0.61 95 1006.1
20260505174031 61 0 0.0 4.0 0.00 0.61 0.61 95 1006.1
20260505173531 61 360 1.0 4.0 0.00 0.61 0.61 95 1006.0
20260505173040 61 360 0.0 2.0 0.00 0.61 0.61 96 1005.9
20260505172530 61 360 0.0 2.0 0.00 0.61 0.61 96 1005.8
20260505172031 61 0 0.0 2.0 0.00 0.61 0.61 96 1005.9
20260505171544 61 0 0.0 2.0 0.00 0.61 0.61 96 1005.9
20260505171028 61 360 1.0 2.0 0.00 0.61 0.61 96 1006.1
20260505170530 61 360 0.0 2.0 0.00 0.61 0.61 96 1006.2
20260505170055 61 0 0.0 2.0 0.00 0.61 0.61 96 1006.3
20260505165530 61 0 0.0 2.0 0.00 0.61 0.61 96 1006.2
20260505165030 61 360 0.0 2.0 0.00 0.61 0.61 96 1006.2
20260505164544 61 0 0.0 2.0 0.00 0.61 0.61 96 1006.0
20260505164030 61 0 0.0 2.0 0.00 0.61 0.61 96 1005.9
20260505163531 61 0 0.0 2.0 0.00 0.61 0.61 96 1005.9
20260505163043 61 360 0.0 3.0 0.00 0.61 0.61 96 1006.0
20260505162533 61 360 1.0 3.0 0.00 0.61 0.61 96 1005.9
20260505162030 61 360 1.0 2.0 0.00 0.61 0.61 96 1005.9
20260505161540 61 0 1.0 3.0 0.00 0.61 0.61 96 1005.9
20260505161030 61 360 1.0 3.0 0.00 0.61 0.61 96 1005.7
20260505160529 61 360 1.0 3.0 0.00 0.61 0.61 96 1005.7
20260505153047 60 0 0.0 2.0 0.00 0.61 0.61 96 1005.5
20260505152528 60 0 0.0 2.0 0.00 0.61 0.61 96 1005.4
20260505152026 60 0 0.0 2.0 0.00 0.61 0.61 96 1005.5
20260505151556 60 360 0.0 2.0 0.00 0.61 0.61 96 1005.6
20260505151028 59 360 0.0 2.0 0.00 0.61 0.61 96 1005.7
20260505150529 59 0 0.0 5.0 0.00 0.61 0.61 96 1005.7
20260505140528 59 0 0.0 3.0 0.00 0.61 0.61 96 1006.5
20260505125027 59 0 0.0 1.0 0.00 0.61 0.61 96 1005.7
20260505124544 59 0 0.0 1.0 0.00 0.61 0.61 95 1005.6
20260505124028 59 0 0.0 1.0 0.00 0.61 0.61 95 1005.6
20260505123528 59 0 0.0 2.0 0.00 0.61 0.61 95 1005.4
20260505123055 59 0 0.0 2.0 0.00 0.61 0.61 95 1005.2
20260505122527 59 0 0.0 1.0 0.00 0.61 0.61 95 1005.2
20260505122027 59 0 0.0 1.0 0.00 0.61 0.61 95 1005.2
20260505121553 59 360 0.0 1.0 0.00 0.61 0.61 95 1005.1
20260505121028 59 0 0.0 2.0 0.00 0.61 0.61 95 1005.0
20260505120527 59 0 0.0 2.0 0.00 0.61 0.61 95 1005.1
20260505120044 59 0 0.0 2.0 0.00 0.61 0.61 95 1005.0
20260505115527 59 0 0.0 1.0 0.00 0.61 0.61 95 1005.1
20260505115028 59 0 0.0 1.0 0.00 0.61 0.61 95 1005.1
20260505114545 59 0 0.0 1.0 0.00 0.61 0.61 95 1004.9
20260505114026 59 0 0.0 1.0 0.01 0.61 0.61 95 1004.7
20260505113526 59 0 0.0 1.0 0.01 0.61 0.61 95 1004.9
20260505113043 59 0 0.0 1.0 0.01 0.61 0.61 95 1005.0
20260505112528 59 0 0.0 1.0 0.01 0.61 0.61 95 1004.9
20260505112028 59 0 0.0 2.0 0.01 0.61 0.61 95 1004.9
20260505111545 59 0 0.0 3.0 0.01 0.61 0.61 95 1005.0
20260505111030 59 360 0.0 3.0 0.02 0.61 0.61 95 1005.1
20260505110527 59 0 0.0 1.0 0.02 0.61 0.61 95 1005.1
20260505102027 59 0 0.0 2.0 0.11 0.60 0.60 95 1006.0
20260505101552 59 0 0.0 2.0 0.10 0.58 0.58 95 1006.2
20260505101028 59 360 0.0 2.0 0.11 0.58 0.58 95 1006.2
20260505100531 59 0 0.0 2.0 0.15 0.58 0.58 95 1006.4
20260505100137 59 0 0.0 1.0 0.16 0.58 0.58 95 1006.2
20260505095528 59 0 0.0 1.0 0.16 0.56 0.56 95 1006.6
20260505095027 59 0 0.0 1.0 0.20 0.56 0.56 95 1006.5
20260505094541 59 0 0.0 1.0 0.20 0.55 0.55 95 1006.2
20260505094027 59 0 0.0 1.0 0.21 0.55 0.55 94 1006.2
20260505093528 59 0 0.0 1.0 0.20 0.54 0.54 95 1005.9
20260505093043 59 360 0.0 1.0 0.19 0.52 0.52 94 1006.5
20260505092528 59 360 0.0 1.0 0.17 0.49 0.49 95 1006.5
20260505092028 59 360 0.0 1.0 0.19 0.49 0.49 94 1006.5
20260505091540 59 360 0.0 2.0 0.20 0.49 0.49 94 1006.2
20260505091030 59 0 0.0 2.0 0.19 0.48 0.48 94 1005.7
20260505090528 59 0 0.0 2.0 0.15 0.43 0.43 94 1005.7
20260505090051 59 0 1.0 2.0 0.18 0.42 0.42 94 1006.4
20260505085527 59 360 0.0 2.0 0.19 0.39 0.39 94 1006.0
20260505085030 59 0 0.0 1.0 0.18 0.35 0.35 94 1005.4
20260505084549 59 0 0.0 2.0 0.25 0.35 0.35 94 1005.4
20260505084029 59 360 0.0 2.0 0.28 0.34 0.34 94 1005.4
20260505083526 59 360 0.0 2.0 0.29 0.34 0.34 94 1006.0
20260505083049 59 0 0.0 1.0 0.29 0.33 0.33 93 1005.6
20260505082530 59 0 0.0 1.0 0.29 0.32 0.32 93 1006.0
20260505082030 59 0 0.0 2.0 0.28 0.30 0.30 93 1006.4
20260505081545 59 0 0.0 2.0 0.27 0.29 0.29 93 1006.2
20260505081034 59 360 1.0 2.0 0.27 0.29 0.29 93 1006.1
20260505080530 59 0 0.0 2.0 0.26 0.27 0.27 92 1006.0
20260505080042 59 360 1.0 2.0 0.23 0.24 0.24 92 1006.1
20260505075532 59 360 0.0 3.0 0.18 0.19 0.19 92 1006.9
20260505075029 59 0 1.0 3.0 0.16 0.17 0.17 92 1006.6
20260505074540 60 0 0.0 3.0 0.09 0.09 0.09 92 1006.9
20260505074026 60 360 1.0 3.0 0.06 0.06 0.06 91 1006.5
20260505073530 60 360 1.0 3.0 0.04 0.04 0.04 91 1006.0
20260505073044 60 360 0.0 2.0 0.04 0.04 0.04 91 1006.1
20260505072531 60 0 0.0 2.0 0.03 0.03 0.03 90 1005.8
20260505072030 60 360 0.0 2.0 0.02 0.02 0.02 89 1005.7
20260505071542 61 0 0.0 0.0 0.02 0.02 0.02 89 1006.0
20260505071030 61 0 0.0 2.0 0.02 0.02 0.02 88 1006.0
20260505070535 61 0 0.0 2.0 0.01 0.01 0.01 87 1006.1
20260505070046 61 0 0.0 2.0 0.01 0.01 0.01 86 1006.2
20260505065531 62 0 0.0 2.0 0.01 0.01 0.01 85 1006.3
20260505065033 63 0 0.0 2.0 0.01 0.01 0.01 82 1005.4
20260505064547 63 360 0.0 1.0 0.00 0.00 0.00 81 1005.4
20260505064030 64 0 0.0 0.0 0.00 0.00 0.00 80 1005.6
20260505063530 64 0 0.0 1.0 0.00 0.00 0.00 77 1005.7
20260505063046 64 0 0.0 2.0 0.00 0.00 0.00 76 1006.0
20260505062533 64 0 0.0 3.0 0.00 0.00 0.00 75 1006.1
20260505062030 64 0 1.0 3.0 0.00 0.00 0.00 75 1006.2
20260505061546 64 360 1.0 3.0 0.00 0.00 0.00 75 1006.3
20260505061032 64 360 1.0 3.0 0.00 0.00 0.00 76 1006.2
20260505060530 64 360 0.0 2.0 0.00 0.00 0.00 76 1006.3
20260505060045 63 0 0.0 1.0 0.00 0.00 0.00 76 1006.3
20260505055533 63 0 0.0 1.0 0.00 0.00 0.00 77 1006.2
20260505055031 63 0 0.0 2.0 0.00 0.00 0.00 76 1006.3
20260505054545 63 0 0.0 2.0 0.00 0.00 0.00 77 1006.2
20260505054033 63 360 0.0 2.0 0.00 0.00 0.00 76 1006.1
20260505053531 63 360 0.0 2.0 0.00 0.00 0.00 76 1006.1
20260505053055 63 0 0.0 2.0 0.00 0.00 0.00 76 1006.0
20260505052531 63 0 0.0 2.0 0.00 0.00 0.00 76 1006.1
20260505052030 63 0 0.0 1.0 0.00 0.00 0.00 76 1006.0
20260505051547 64 0 0.0 1.0 0.00 0.00 0.00 76 1005.8
20260505051030 64 0 0.0 2.0 0.00 0.00 0.00 75 1005.7
20260505050534 64 360 0.0 2.0 0.00 0.00 0.00 75 1005.9